Time,TemperatureF,DewpointF,PressureIn,WindDirection,WindDirectionDegrees,WindSpeedMPH,WindSpeedGustMPH,Humidity,HourlyPrecipIn,Conditions,Clouds,dailyrainin,SolarRadiationWatts/m^2,SoftwareType,DateUTC
2013-04-02 00:02:00,41.0,25.0,-100.00,NNW,341,6.0,10.0,52,0.00,,,0.01,0.000000,,2013-04-02 05:02:00,
2013-04-02 00:32:00,39.0,24.0,-100.00,NNW,342,5.0,8.0,54,0.00,,,0.01,0.000000,,2013-04-02 05:32:00,
2013-04-02 00:43:00,39.0,24.0,-100.00,NNW,342,5.0,8.0,54,0.00,,,0.01,0.000000,,2013-04-02 05:43:00,
2013-04-02 00:52:00,39.0,24.0,-100.00,NNW,342,5.0,8.0,54,0.00,,,0.01,0.000000,,2013-04-02 05:52:00,
2013-04-02 01:02:00,39.0,24.0,-100.00,NNW,342,5.0,8.0,54,0.00,,,0.01,0.000000,,2013-04-02 06:02:00,
2013-04-02 01:32:00,38.0,23.0,-100.00,NNW,337,4.0,8.0,55,0.00,,,0.01,0.000000,,2013-04-02 06:32:00,
2013-04-02 01:42:00,38.0,23.0,-100.00,NNW,337,4.0,8.0,55,0.00,,,0.01,0.000000,,2013-04-02 06:42:00,
2013-04-02 01:52:00,38.0,23.0,-100.00,NNW,337,4.0,8.0,55,0.00,,,0.01,0.000000,,2013-04-02 06:52:00,
2013-04-02 02:02:00,38.0,23.0,-100.00,NNW,337,4.0,8.0,55,0.00,,,0.01,0.000000,,2013-04-02 07:02:00,
2013-04-02 03:32:00,34.0,22.0,-100.00,North,358,2.0,4.0,62,-99.99,,,0.01,0.000000,,2013-04-02 08:32:00,
2013-04-02 03:43:00,34.0,22.0,-100.00,North,358,2.0,4.0,62,-99.99,,,0.01,0.000000,,2013-04-02 08:43:00,
2013-04-02 03:52:00,34.0,22.0,-100.00,North,358,2.0,4.0,62,-99.99,,,0.01,0.000000,,2013-04-02 08:52:00,
2013-04-02 04:02:00,34.0,22.0,-100.00,North,358,2.0,4.0,62,-99.99,,,0.01,0.000000,,2013-04-02 09:02:00,
2013-04-02 04:33:00,34.0,22.0,-100.00,North,359,4.0,7.0,61,0.00,,,0.01,0.000000,,2013-04-02 09:33:00,
2013-04-02 04:43:00,34.0,22.0,-100.00,North,359,4.0,7.0,61,0.00,,,0.01,0.000000,,2013-04-02 09:43:00,
2013-04-02 04:53:00,34.0,22.0,-100.00,North,359,4.0,7.0,61,0.00,,,0.01,0.000000,,2013-04-02 09:53:00,
2013-04-02 05:03:00,34.0,22.0,-100.00,North,359,4.0,7.0,61,0.00,,,0.01,0.000000,,2013-04-02 10:03:00,
2013-04-02 05:33:00,32.0,21.0,-100.00,WNW,293,1.0,5.0,64,0.00,,,0.01,0.000000,,2013-04-02 10:33:00,
2013-04-02 05:42:00,32.0,21.0,-100.00,WNW,293,1.0,5.0,64,0.00,,,0.01,0.000000,,2013-04-02 10:42:00,
2013-04-02 05:52:00,32.0,21.0,-100.00,WNW,293,1.0,5.0,64,0.00,,,0.01,0.000000,,2013-04-02 10:52:00,
2013-04-02 06:02:00,32.0,21.0,-100.00,WNW,293,1.0,5.0,64,0.00,,,0.01,0.000000,,2013-04-02 11:02:00,
2013-04-02 06:33:00,32.0,22.0,-100.00,North,4,3.0,4.0,67,0.00,,,0.01,0.000000,,2013-04-02 11:33:00,
2013-04-02 06:43:00,32.0,22.0,-100.00,North,4,3.0,4.0,67,0.00,,,0.01,0.000000,,2013-04-02 11:43:00,
2013-04-02 06:53:00,32.0,22.0,-100.00,North,4,3.0,4.0,67,0.00,,,0.01,0.000000,,2013-04-02 11:53:00,
2013-04-02 07:02:00,32.0,22.0,-100.00,North,4,3.0,4.0,67,0.00,,,0.01,0.000000,,2013-04-02 12:02:00,
2013-04-02 08:33:00,36.0,25.0,-100.00,NNE,27,4.0,6.0,64,-99.99,,,0.00,52.000000,,2013-04-02 13:33:00,
2013-04-02 08:42:00,36.0,25.0,-100.00,NNE,27,4.0,6.0,64,-99.99,,,0.00,52.000000,,2013-04-02 13:42:00,
2013-04-02 08:52:00,36.0,25.0,-100.00,NNE,27,4.0,6.0,64,-99.99,,,0.00,52.000000,,2013-04-02 13:52:00,
2013-04-02 09:02:00,36.0,25.0,-100.00,NNE,27,4.0,6.0,64,-99.99,,,0.00,52.000000,,2013-04-02 14:02:00,
2013-04-02 09:33:00,40.0,23.0,-100.00,NNE,25,7.0,11.0,51,0.00,,,0.00,290.000000,,2013-04-02 14:33:00,
2013-04-02 09:42:00,40.0,23.0,-100.00,NNE,25,7.0,11.0,51,0.00,,,0.00,290.000000,,2013-04-02 14:42:00,
2013-04-02 09:52:00,40.0,23.0,-100.00,NNE,25,7.0,11.0,51,0.00,,,0.00,290.000000,,2013-04-02 14:52:00,
2013-04-02 10:02:00,40.0,23.0,-100.00,NNE,25,7.0,11.0,51,0.00,,,0.00,290.000000,,2013-04-02 15:02:00,
2013-04-02 10:33:00,44.0,23.0,-100.00,NNE,28,6.0,11.0,43,0.00,,,0.00,545.000000,,2013-04-02 15:33:00,
2013-04-02 10:43:00,44.0,23.0,-100.00,NNE,28,6.0,11.0,43,0.00,,,0.00,545.000000,,2013-04-02 15:43:00,
2013-04-02 10:58:00,44.0,23.0,-100.00,NNE,28,6.0,11.0,43,0.00,,,0.00,545.000000,,2013-04-02 15:58:00,
2013-04-02 11:04:00,44.0,23.0,-100.00,NNE,28,6.0,11.0,43,0.00,,,0.00,545.000000,,2013-04-02 16:04:00,
2013-04-02 11:39:00,46.0,20.0,-100.00,North,355,6.0,14.0,35,0.00,,,-99.99,688.000000,,2013-04-02 16:39:00,
2013-04-02 11:44:00,46.0,20.0,-100.00,North,355,6.0,14.0,35,0.00,,,-99.99,688.000000,,2013-04-02 16:44:00,
2013-04-02 11:53:00,46.0,20.0,-100.00,North,355,6.0,14.0,35,0.00,,,-99.99,688.000000,,2013-04-02 16:53:00,
2013-04-02 12:05:00,46.0,20.0,-100.00,North,355,6.0,14.0,35,0.00,,,-99.99,688.000000,,2013-04-02 17:05:00,
2013-04-02 12:43:00,49.0,20.0,-100.00,North,1,4.0,13.0,32,0.00,,,0.00,769.000000,,2013-04-02 17:43:00,
2013-04-02 12:55:00,49.0,20.0,-100.00,North,1,4.0,13.0,32,0.00,,,0.00,769.000000,,2013-04-02 17:55:00,
2013-04-02 13:03:00,49.0,20.0,-100.00,North,1,4.0,13.0,32,0.00,,,0.00,769.000000,,2013-04-02 18:03:00,
2013-04-02 13:35:00,51.0,20.0,-100.00,ENE,65,5.0,11.0,29,0.00,,,0.00,817.000000,,2013-04-02 18:35:00,
2013-04-02 13:43:00,51.0,20.0,-100.00,ENE,65,5.0,11.0,29,0.00,,,0.00,817.000000,,2013-04-02 18:43:00,
2013-04-02 13:57:00,51.0,20.0,-100.00,ENE,65,5.0,11.0,29,0.00,,,0.00,817.000000,,2013-04-02 18:57:00,
2013-04-02 14:03:00,51.0,20.0,-100.00,ENE,65,5.0,11.0,29,0.00,,,0.00,817.000000,,2013-04-02 19:03:00,
2013-04-02 14:34:00,52.0,19.0,-100.00,NNW,346,5.0,10.0,27,0.00,,,0.00,734.000000,,2013-04-02 19:34:00,
2013-04-02 14:46:00,52.0,19.0,-100.00,NNW,346,5.0,10.0,27,0.00,,,0.00,734.000000,,2013-04-02 19:46:00,
2013-04-02 14:56:00,52.0,19.0,-100.00,NNW,346,5.0,10.0,27,0.00,,,0.00,734.000000,,2013-04-02 19:56:00,
2013-04-02 15:03:00,52.0,19.0,-100.00,NNW,346,5.0,10.0,27,0.00,,,0.00,734.000000,,2013-04-02 20:03:00,
2013-04-02 15:34:00,50.0,16.0,-100.00,NNE,29,5.0,9.0,25,0.00,,,0.00,457.000000,,2013-04-02 20:34:00,
2013-04-02 15:44:00,50.0,16.0,-100.00,NNE,29,5.0,9.0,25,0.00,,,0.00,457.000000,,2013-04-02 20:44:00,
2013-04-02 15:54:00,50.0,16.0,-100.00,NNE,29,5.0,9.0,25,0.00,,,0.00,457.000000,,2013-04-02 20:54:00,
2013-04-02 16:04:00,50.0,16.0,-100.00,NNE,29,5.0,9.0,25,0.00,,,0.00,457.000000,,2013-04-02 21:04:00,
2013-04-02 17:44:00,48.0,18.0,-100.00,NNW,332,5.0,11.0,30,-99.99,,,0.00,109.000000,,2013-04-02 22:44:00,
2013-04-02 17:54:00,48.0,18.0,-100.00,NNW,332,5.0,11.0,30,-99.99,,,0.00,109.000000,,2013-04-02 22:54:00,
2013-04-02 18:03:00,48.0,18.0,-100.00,NNW,332,5.0,11.0,30,-99.99,,,0.00,109.000000,,2013-04-02 23:03:00,
2013-04-02 18:37:00,46.0,18.0,-100.00,NNW,339,6.0,11.0,32,0.00,,,0.00,55.000000,,2013-04-02 23:37:00,
2013-04-02 18:43:00,46.0,18.0,-100.00,NNW,339,6.0,11.0,32,0.00,,,0.00,55.000000,,2013-04-02 23:43:00,
2013-04-02 18:54:00,46.0,18.0,-100.00,NNW,339,6.0,11.0,32,0.00,,,0.00,55.000000,,2013-04-02 23:54:00,
2013-04-02 19:04:00,46.0,18.0,-100.00,NNW,339,6.0,11.0,32,0.00,,,0.00,55.000000,,2013-04-03 00:04:00,
2013-04-02 19:34:00,45.0,17.0,-100.00,NW,318,4.0,9.0,32,0.00,,,0.00,12.000000,,2013-04-03 00:34:00,
2013-04-02 19:47:00,45.0,17.0,-100.00,NW,318,4.0,9.0,32,0.00,,,0.00,12.000000,,2013-04-03 00:47:00,
2013-04-02 19:56:00,45.0,17.0,-100.00,NW,318,4.0,9.0,32,0.00,,,0.00,12.000000,,2013-04-03 00:56:00,
2013-04-02 20:03:00,45.0,17.0,-100.00,NW,318,4.0,9.0,32,0.00,,,0.00,12.000000,,2013-04-03 01:03:00,
2013-04-02 20:34:00,44.0,19.0,-100.00,WNW,300,3.0,6.0,36,0.00,,,0.00,0.000000,,2013-04-03 01:34:00,
2013-04-02 20:43:00,44.0,19.0,-100.00,WNW,300,3.0,6.0,36,0.00,,,0.00,0.000000,,2013-04-03 01:43:00,
2013-04-02 20:53:00,44.0,19.0,-100.00,WNW,300,3.0,6.0,36,0.00,,,0.00,0.000000,,2013-04-03 01:53:00,
2013-04-02 21:03:00,44.0,19.0,-100.00,WNW,300,3.0,6.0,36,0.00,,,0.00,0.000000,,2013-04-03 02:03:00,
2013-04-02 21:34:00,42.0,19.0,-100.00,WNW,300,3.0,6.0,39,0.00,,,0.00,0.000000,,2013-04-03 02:34:00,
2013-04-02 21:44:00,42.0,19.0,-100.00,WNW,300,3.0,6.0,39,0.00,,,0.00,0.000000,,2013-04-03 02:44:00,
2013-04-02 21:53:00,42.0,19.0,-100.00,WNW,300,3.0,6.0,39,0.00,,,0.00,0.000000,,2013-04-03 02:53:00,
2013-04-02 22:05:00,42.0,19.0,-100.00,WNW,300,3.0,6.0,39,0.00,,,0.00,0.000000,,2013-04-03 03:05:00,
2013-04-02 22:38:00,42.0,21.0,-100.00,NNW,336,6.0,10.0,42,0.00,,,0.00,0.000000,,2013-04-03 03:38:00,
2013-04-02 22:44:00,42.0,21.0,-100.00,NNW,336,6.0,10.0,42,0.00,,,0.00,0.000000,,2013-04-03 03:44:00,
2013-04-02 22:54:00,42.0,21.0,-100.00,NNW,336,6.0,10.0,42,0.00,,,0.00,0.000000,,2013-04-03 03:54:00,
2013-04-02 23:03:00,42.0,21.0,-100.00,NNW,336,6.0,10.0,42,0.00,,,0.00,0.000000,,2013-04-03 04:03:00,
2013-04-02 23:33:00,40.0,19.0,-100.00,NNW,346,5.0,9.0,42,0.00,,,0.00,0.000000,,2013-04-03 04:33:00,
2013-04-02 23:43:00,40.0,19.0,-100.00,NNW,346,5.0,9.0,42,0.00,,,0.00,0.000000,,2013-04-03 04:43:00,
2013-04-02 23:53:00,40.0,19.0,-100.00,NNW,346,5.0,9.0,42,0.00,,,0.00,0.000000,,2013-04-03 04:53:00,